Location: Devargunta
(16.7631°N, 80.9077°E)
Time: 10:21:24
(UTC+00:00)

Cosmos 540 Rocket - Pass Details

Date: 05 December 2021
Orbit: 739 x 754 km, 74.1° (Epoch: 16 January)

Event Time Altitude Azimuth Distance (km) Brightness Sun altitude
Exits shadow 22:11:17 22° 133° (SE) 1,577 5.5 -37.2°
Drops below altitude 10° 22:13:18 10° 146° (SE) 2,266 6.4 -36.8°
Sets 22:15:46 0° 153° (SSE) 3,190 7.2 -36.2°
